,,,PA_Meas_PMT16A,,PR_Meas_QMR101_102,,RH_Meas_QMH101,,SR_Meas_QMS101,,TA_Meas_QMH101,,GenWind,,GenWind,
date,time,status,PA,status,PR,status,RH,status,SR,status,TA,status,DirAvg,status,SpdAvg,
2012-10-06, 00:00:04,VALID,1010.77,VALID,0,VALID,104,VALID,0,VALID,23.8676,VALID,67,VALID,0,
2012-10-06, 00:01:04,VALID,1010.79,VALID,0,VALID,104,VALID,0.112112,VALID,23.8481,VALID,66,VALID,0,
2012-10-06, 00:02:04,VALID,1010.78,VALID,0,VALID,104,VALID,0,VALID,23.8499,VALID,67,VALID,0,
2012-10-06, 00:03:04,VALID,1010.77,VALID,0,VALID,104,VALID,0,VALID,23.8304,VALID,67,VALID,0,
2012-10-06, 00:04:04,VALID,1010.78,VALID,0,VALID,104,VALID,0,VALID,23.7896,VALID,66,VALID,0,
2012-10-06, 00:05:04,VALID,1010.81,VALID,0,VALID,104,VALID,0,VALID,23.7914,VALID,68,VALID,0,
2012-10-06, 00:06:04,VALID,1010.83,VALID,0,VALID,104,VALID,0.112112,VALID,23.7896,VALID,67,VALID,0,
2012-10-06, 00:07:04,VALID,1010.86,VALID,0,VALID,104,VALID,0,VALID,23.772,VALID,68,VALID,0,
2012-10-06, 00:08:04,VALID,1010.86,VALID,0,VALID,104,VALID,0,VALID,23.772,VALID,65,VALID,0,
2012-10-06, 00:09:04,VALID,1010.9,VALID,0,VALID,104,VALID,0,VALID,23.7525,VALID,66,VALID,0,
2012-10-06, 00:10:04,VALID,1010.93,VALID,0,VALID,104,VALID,0,VALID,23.7117,VALID,67,VALID,0,
2012-10-06, 00:11:04,VALID,1010.95,VALID,0,VALID,104,VALID,0,VALID,23.7525,VALID,67,VALID,0.575,
2012-10-06, 00:12:04,VALID,1010.93,VALID,0,VALID,104,VALID,0,VALID,23.7507,VALID,66,VALID,0.698828,
2012-10-06, 00:13:04,VALID,1010.94,VALID,0,VALID,104,VALID,0,VALID,23.7507,VALID,66,VALID,0.593359,
2012-10-06, 00:14:04,VALID,1010.93,VALID,0,VALID,104,VALID,0,VALID,23.7701,VALID,65,VALID,0.518359,
2012-10-06, 00:15:04,VALID,1010.95,VALID,0,VALID,104,VALID,0.112112,VALID,23.7507,VALID,64,VALID,0.433594,
2012-10-06, 00:16:04,VALID,1010.94,VALID,0,VALID,104,VALID,0,VALID,23.7507,VALID,46,VALID,0.497266,
2012-10-06, 00:17:04,VALID,1010.93,VALID,0,VALID,104,VALID,0,VALID,23.772,VALID,21,VALID,0.412891,
2012-10-06, 00:18:04,VALID,1010.95,VALID,0,VALID,104,VALID,0,VALID,23.772,VALID,8,VALID,0,
2012-10-06, 00:19:04,VALID,1010.93,VALID,0,VALID,104,VALID,0,VALID,23.7312,VALID,11,VALID,0.476563,
2012-10-06, 00:20:04,VALID,1010.93,VALID,0,VALID,104,VALID,0,VALID,23.7525,VALID,10,VALID,0.207813,
2012-10-06, 00:21:04,VALID,1010.94,VALID,0,VALID,104,VALID,0,VALID,23.7525,VALID,11,VALID,0.174219,
2012-10-06, 00:22:04,VALID,1010.95,VALID,0,VALID,104,VALID,0,VALID,23.7312,VALID,10,VALID,0.0253906,
2012-10-06, 00:23:04,VALID,1010.92,VALID,0,VALID,104,VALID,0,VALID,23.7117,VALID,11,VALID,0,
2012-10-06, 00:24:04,VALID,1010.93,VALID,0,VALID,104,VALID,0,VALID,23.7312,VALID,10,VALID,0,
2012-10-06, 00:25:04,VALID,1010.9,VALID,0,VALID,104,VALID,0,VALID,23.7117,VALID,9,VALID,0,
2012-10-06, 00:26:04,VALID,1010.9,VALID,0,VALID,104,VALID,0.112112,VALID,23.7117,VALID,10,VALID,0,
2012-10-06, 00:27:04,VALID,1010.92,VALID,0,VALID,104,VALID,0.112112,VALID,23.7135,VALID,10,VALID,0,
2012-10-06, 00:28:04,VALID,1010.89,VALID,0,VALID,104,VALID,0,VALID,23.6922,VALID,10,VALID,0,
2012-10-06, 00:29:04,VALID,1010.89,VALID,0,VALID,104,VALID,0,VALID,23.6922,VALID,10,VALID,0,
2012-10-06, 00:30:04,VALID,1010.87,VALID,0,VALID,104,VALID,0,VALID,23.7135,VALID,10,VALID,0.270312,
2012-10-06, 00:31:04,VALID,1010.86,VALID,0,VALID,104,VALID,0,VALID,23.6727,VALID,11,VALID,0.128516,
2012-10-06, 00:32:04,VALID,1010.84,VALID,0,VALID,104,VALID,0,VALID,23.694,VALID,11,VALID,0,
2012-10-06, 00:33:04,VALID,1010.85,VALID,0,VALID,104,VALID,0,VALID,23.6745,VALID,11,VALID,0,
2012-10-06, 00:34:04,VALID,1010.85,VALID,0,VALID,104,VALID,0,VALID,23.694,VALID,10,VALID,0.0996094,
2012-10-06, 00:35:04,VALID,1010.89,VALID,0,VALID,104,VALID,0,VALID,23.6727,VALID,10,VALID,0,
2012-10-06, 00:36:04,VALID,1010.88,VALID,0,VALID,104,VALID,0,VALID,23.694,VALID,10,VALID,0,
2012-10-06, 00:37:04,VALID,1010.88,VALID,0,VALID,104,VALID,0,VALID,23.694,VALID,10,VALID,0,
2012-10-06, 00:38:04,VALID,1010.91,VALID,0,VALID,104,VALID,0,VALID,23.694,VALID,10,VALID,0,
2012-10-06, 00:39:04,VALID,1010.86,VALID,0,VALID,104,VALID,0,VALID,23.7135,VALID,10,VALID,0,
2012-10-06, 00:40:04,VALID,1010.88,VALID,0,VALID,104,VALID,0,VALID,23.694,VALID,10,VALID,0,
2012-10-06, 00:41:04,VALID,1010.85,VALID,0,VALID,104,VALID,0,VALID,23.7135,VALID,10,VALID,0,
2012-10-06, 00:42:04,VALID,1010.82,VALID,0,VALID,104,VALID,0,VALID,23.7135,VALID,10,VALID,0,
2012-10-06, 00:43:04,VALID,1010.8,VALID,0,VALID,104,VALID,0,VALID,23.733,VALID,10,VALID,0,
2012-10-06, 00:44:04,VALID,1010.81,VALID,0,VALID,104,VALID,0,VALID,23.733,VALID,10,VALID,0,
2012-10-06, 00:45:04,VALID,1010.79,VALID,0,VALID,104,VALID,0,VALID,23.7117,VALID,10,VALID,0,
2012-10-06, 00:46:04,VALID,1010.75,VALID,0,VALID,104,VALID,0,VALID,23.7525,VALID,10,VALID,0,
2012-10-06, 00:47:04,VALID,1010.73,VALID,0,VALID,104,VALID,0,VALID,23.7525,VALID,10,VALID,0,
2012-10-06, 00:48:04,VALID,1010.73,VALID,0,VALID,104,VALID,0,VALID,23.772,VALID,10,VALID,0,
2012-10-06, 00:49:04,VALID,1010.69,VALID,0,VALID,104,VALID,0,VALID,23.7312,VALID,10,VALID,0,
2012-10-06, 00:50:04,VALID,1010.69,VALID,0,VALID,104,VALID,0,VALID,23.7507,VALID,10,VALID,0,
2012-10-06, 00:51:04,VALID,1010.7,VALID,0,VALID,104,VALID,0,VALID,23.7507,VALID,10,VALID,0,
2012-10-06, 00:52:04,VALID,1010.71,VALID,0,VALID,104,VALID,0,VALID,23.772,VALID,10,VALID,0,
2012-10-06, 00:53:04,VALID,1010.72,VALID,0,VALID,104,VALID,0,VALID,23.7525,VALID,10,VALID,0,
2012-10-06, 00:54:04,VALID,1010.72,VALID,0,VALID,104,VALID,0,VALID,23.7312,VALID,10,VALID,0,
2012-10-06, 00:55:04,VALID,1010.71,VALID,0,VALID,104,VALID,0,VALID,23.7525,VALID,10,VALID,0,
2012-10-06, 00:56:04,VALID,1010.72,VALID,0,VALID,104,VALID,0,VALID,23.7525,VALID,10,VALID,0,
2012-10-06, 00:57:04,VALID,1010.68,VALID,0,VALID,104,VALID,0.112112,VALID,23.772,VALID,10,VALID,0,
2012-10-06, 00:58:04,VALID,1010.65,VALID,0,VALID,104,VALID,0,VALID,23.7525,VALID,10,VALID,0,
2012-10-06, 00:59:04,VALID,1010.69,VALID,0,VALID,104,VALID,0,VALID,23.733,VALID,10,VALID,0,
2012-10-06, 01:00:04,VALID,1010.69,VALID,0,VALID,104,VALID,0,VALID,23.733,VALID,10,VALID,0,
2012-10-06, 01:01:04,VALID,1010.67,VALID,0,VALID,104,VALID,0,VALID,23.733,VALID,10,VALID,0,
2012-10-06, 01:02:04,VALID,1010.64,VALID,0,VALID,104,VALID,0,VALID,23.7117,VALID,10,VALID,0,
2012-10-06, 01:03:04,VALID,1010.6,VALID,0,VALID,104,VALID,0,VALID,23.7117,VALID,10,VALID,0,
2012-10-06, 01:04:04,VALID,1010.59,VALID,0,VALID,104,VALID,0,VALID,23.733,VALID,10,VALID,0,
2012-10-06, 01:05:04,VALID,1010.56,VALID,0,VALID,104,VALID,0,VALID,23.733,VALID,10,VALID,0,
2012-10-06, 01:06:04,VALID,1010.55,VALID,0,VALID,104,VALID,0,VALID,23.7135,VALID,10,VALID,0,
2012-10-06, 01:07:04,VALID,1010.55,VALID,0,VALID,104,VALID,0,VALID,23.7117,VALID,10,VALID,0,
2012-10-06, 01:08:04,VALID,1010.57,VALID,0,VALID,104,VALID,0,VALID,23.7312,VALID,10,VALID,0,
2012-10-06, 01:09:04,VALID,1010.56,VALID,0,VALID,104,VALID,0,VALID,23.7117,VALID,10,VALID,0,
2012-10-06, 01:10:04,VALID,1010.57,VALID,0,VALID,104,VALID,0,VALID,23.733,VALID,10,VALID,0,
2012-10-06, 01:11:04,VALID,1010.56,VALID,0,VALID,104,VALID,0,VALID,23.7117,VALID,10,VALID,0,
2012-10-06, 01:12:04,VALID,1010.54,VALID,0,VALID,104,VALID,0,VALID,23.7135,VALID,10,VALID,0,
2012-10-06, 01:13:04,VALID,1010.54,VALID,0,VALID,104,VALID,0,VALID,23.7135,VALID,10,VALID,0,
2012-10-06, 01:14:04,VALID,1010.55,VALID,0,VALID,104,VALID,0,VALID,23.7135,VALID,10,VALID,0,
2012-10-06, 01:15:04,VALID,1010.54,VALID,0,VALID,104,VALID,0,VALID,23.6727,VALID,10,VALID,0,
2012-10-06, 01:16:04,VALID,1010.54,VALID,0,VALID,104,VALID,0,VALID,23.6745,VALID,10,VALID,0,
2012-10-06, 01:17:04,VALID,1010.58,VALID,0,VALID,104,VALID,0,VALID,23.655,VALID,10,VALID,0,
2012-10-06, 01:18:04,VALID,1010.58,VALID,0,VALID,104,VALID,0,VALID,23.655,VALID,10,VALID,0,
2012-10-06, 01:19:04,VALID,1010.56,VALID,0,VALID,104,VALID,0,VALID,23.6356,VALID,10,VALID,0,
2012-10-06, 01:20:04,VALID,1010.57,VALID,0,VALID,104,VALID,0,VALID,23.6161,VALID,10,VALID,0,
2012-10-06, 01:21:04,VALID,1010.61,VALID,0,VALID,104,VALID,0,VALID,23.6143,VALID,10,VALID,0,
2012-10-06, 01:22:04,VALID,1010.6,VALID,0,VALID,104,VALID,0,VALID,23.6161,VALID,10,VALID,0,
2012-10-06, 01:23:04,VALID,1010.58,VALID,0,VALID,104,VALID,0,VALID,23.6161,VALID,10,VALID,0,
2012-10-06, 01:24:04,VALID,1010.58,VALID,0,VALID,104,VALID,0,VALID,23.6161,VALID,10,VALID,0,
2012-10-06, 01:25:04,VALID,1010.57,VALID,0,VALID,104,VALID,0,VALID,23.6161,VALID,10,VALID,0,
2012-10-06, 01:26:04,VALID,1010.56,VALID,0,VALID,104,VALID,0,VALID,23.6161,VALID,10,VALID,0,
2012-10-06, 01:27:04,VALID,1010.56,VALID,0,VALID,104,VALID,0,VALID,23.5966,VALID,10,VALID,0,
2012-10-06, 01:28:04,VALID,1010.55,VALID,0,VALID,104,VALID,0,VALID,23.5966,VALID,10,VALID,0,
2012-10-06, 01:29:04,VALID,1010.54,VALID,0,VALID,104,VALID,0,VALID,23.5558,VALID,10,VALID,0,
2012-10-06, 01:30:04,VALID,1010.54,VALID,0,VALID,104,VALID,0,VALID,23.6161,VALID,10,VALID,0,
2012-10-06, 01:31:04,VALID,1010.55,VALID,0,VALID,104,VALID,0,VALID,23.6143,VALID,10,VALID,0,
2012-10-06, 01:32:04,VALID,1010.52,VALID,0,VALID,104,VALID,0,VALID,23.655,VALID,10,VALID,0,
2012-10-06, 01:33:04,VALID,1010.53,VALID,0,VALID,104,VALID,0,VALID,23.6356,VALID,10,VALID,0,
2012-10-06, 01:34:04,VALID,1010.53,VALID,0,VALID,104,VALID,0,VALID,23.6356,VALID,10,VALID,0.255078,
2012-10-06, 01:35:04,VALID,1010.55,VALID,0,VALID,104,VALID,0,VALID,23.655,VALID,10,VALID,0,
2012-10-06, 01:36:04,VALID,1010.53,VALID,0,VALID,104,VALID,0,VALID,23.5948,VALID,10,VALID,0,
2012-10-06, 01:37:04,VALID,1010.53,VALID,0,VALID,104,VALID,0.112112,VALID,23.5948,VALID,10,VALID,0,
2012-10-06, 01:38:04,VALID,1010.52,VALID,0,VALID,104,VALID,0,VALID,23.5558,VALID,10,VALID,0,
2012-10-06, 01:39:04,VALID,1010.53,VALID,0,VALID,104,VALID,0.112112,VALID,23.5558,VALID,10,VALID,0,
2012-10-06, 01:40:04,VALID,1010.51,VALID,0,VALID,104,VALID,0.112112,VALID,23.4974,VALID,10,VALID,0,
2012-10-06, 01:41:04,VALID,1010.48,VALID,0,VALID,104,VALID,0,VALID,23.4779,VALID,10,VALID,0,
2012-10-06, 01:42:04,VALID,1010.43,VALID,0,VALID,104,VALID,0,VALID,23.4194,VALID,10,VALID,0,
2012-10-06, 01:43:04,VALID,1010.44,VALID,0,VALID,104,VALID,0,VALID,23.4194,VALID,10,VALID,0,
2012-10-06, 01:44:04,VALID,1010.41,VALID,0,VALID,104,VALID,0,VALID,23.4,VALID,10,VALID,0,
2012-10-06, 01:45:04,VALID,1010.38,VALID,0,VALID,104,VALID,0,VALID,23.3805,VALID,10,VALID,0,
2012-10-06, 01:46:04,VALID,1010.36,VALID,0,VALID,104,VALID,0,VALID,23.3628,VALID,10,VALID,0,
2012-10-06, 01:47:04,VALID,1010.37,VALID,0,VALID,104,VALID,0,VALID,23.3415,VALID,10,VALID,0,
2012-10-06, 01:48:04,VALID,1010.35,VALID,0,VALID,104,VALID,0,VALID,23.3238,VALID,10,VALID,0,
2012-10-06, 01:49:04,VALID,1010.34,VALID,0,VALID,104,VALID,0.112112,VALID,23.322,VALID,10,VALID,0,
2012-10-06, 01:50:04,VALID,1010.34,VALID,0,VALID,104,VALID,0.112112,VALID,23.3026,VALID,10,VALID,0,
2012-10-06, 01:51:04,VALID,1010.32,VALID,0,VALID,104,VALID,0,VALID,23.3026,VALID,10,VALID,0,
2012-10-06, 01:52:04,VALID,1010.31,VALID,0,VALID,104,VALID,0.112112,VALID,23.3433,VALID,10,VALID,0,
2012-10-06, 01:53:04,VALID,1010.33,VALID,0,VALID,104,VALID,0,VALID,23.3026,VALID,10,VALID,0,
2012-10-06, 01:54:04,VALID,1010.32,VALID,0,VALID,104,VALID,0,VALID,23.3026,VALID,10,VALID,0,
2012-10-06, 01:55:04,VALID,1010.32,VALID,0,VALID,104,VALID,0,VALID,23.2831,VALID,10,VALID,0,
2012-10-06, 01:56:04,VALID,1010.33,VALID,0,VALID,104,VALID,0.112112,VALID,23.3026,VALID,10,VALID,0,
2012-10-06, 01:57:04,VALID,1010.34,VALID,0,VALID,104,VALID,0,VALID,23.3026,VALID,11,VALID,0,
2012-10-06, 01:58:04,VALID,1010.32,VALID,0,VALID,104,VALID,0,VALID,23.3026,VALID,10,VALID,0,
2012-10-06, 01:59:04,VALID,1010.32,VALID,0,VALID,104,VALID,0,VALID,23.3433,VALID,10,VALID,0,
2012-10-06, 02:00:04,VALID,1010.29,VALID,0,VALID,104,VALID,0,VALID,23.322,VALID,10,VALID,0,
2012-10-06, 02:01:04,VALID,1010.28,VALID,0,VALID,104,VALID,0,VALID,23.3415,VALID,10,VALID,0,
2012-10-06, 02:02:04,VALID,1010.26,VALID,0,VALID,104,VALID,0,VALID,23.3433,VALID,10,VALID,0,
2012-10-06, 02:03:04,VALID,1010.28,VALID,0,VALID,104,VALID,0,VALID,23.3433,VALID,10,VALID,0,
2012-10-06, 02:04:04,VALID,1010.28,VALID,0,VALID,104,VALID,0,VALID,23.322,VALID,10,VALID,0,
2012-10-06, 02:05:04,VALID,1010.27,VALID,0,VALID,104,VALID,0,VALID,23.322,VALID,10,VALID,0,
2012-10-06, 02:06:04,VALID,1010.3,VALID,0,VALID,104,VALID,0,VALID,23.3433,VALID,10,VALID,0,
2012-10-06, 02:07:04,VALID,1010.3,VALID,0,VALID,104,VALID,0,VALID,23.322,VALID,10,VALID,0,
2012-10-06, 02:08:04,VALID,1010.3,VALID,0,VALID,104,VALID,0,VALID,23.3628,VALID,10,VALID,0,
2012-10-06, 02:09:04,VALID,1010.31,VALID,0,VALID,104,VALID,0,VALID,23.3415,VALID,10,VALID,0,
2012-10-06, 02:10:04,VALID,1010.31,VALID,0,VALID,104,VALID,0,VALID,23.3433,VALID,10,VALID,0,
2012-10-06, 02:11:04,VALID,1010.29,VALID,0,VALID,104,VALID,0,VALID,23.3628,VALID,10,VALID,0,
2012-10-06, 02:12:04,VALID,1010.3,VALID,0,VALID,104,VALID,0,VALID,23.3415,VALID,10,VALID,0,
2012-10-06, 02:13:04,VALID,1010.29,VALID,0,VALID,104,VALID,0,VALID,23.3415,VALID,10,VALID,0,
2012-10-06, 02:14:04,VALID,1010.28,VALID,0,VALID,104,VALID,0,VALID,23.322,VALID,10,VALID,0,
2012-10-06, 02:15:04,VALID,1010.29,VALID,0,VALID,104,VALID,0,VALID,23.322,VALID,10,VALID,0,
2012-10-06, 02:16:04,VALID,1010.28,VALID,0,VALID,104,VALID,0,VALID,23.3043,VALID,10,VALID,0,
2012-10-06, 02:17:04,VALID,1010.28,VALID,0,VALID,104,VALID,0,VALID,23.2831,VALID,10,VALID,0,
2012-10-06, 02:18:04,VALID,1010.29,VALID,0,VALID,104,VALID,0,VALID,23.2636,VALID,10,VALID,0,
2012-10-06, 02:19:04,VALID,1010.29,VALID,0,VALID,104,VALID,0,VALID,23.2654,VALID,10,VALID,0,
2012-10-06, 02:20:04,VALID,1010.26,VALID,0,VALID,104,VALID,0,VALID,23.2051,VALID,10,VALID,0,
2012-10-06, 02:21:04,VALID,1010.24,VALID,0,VALID,104,VALID,0,VALID,23.2051,VALID,11,VALID,0,
2012-10-06, 02:22:04,VALID,1010.25,VALID,0,VALID,104,VALID,0,VALID,23.1662,VALID,10,VALID,0,
2012-10-06, 02:23:04,VALID,1010.28,VALID,0,VALID,104,VALID,0,VALID,23.1662,VALID,10,VALID,0,
2012-10-06, 02:24:04,VALID,1010.28,VALID,0,VALID,104,VALID,0,VALID,23.1679,VALID,10,VALID,0,
2012-10-06, 02:25:04,VALID,1010.29,VALID,0,VALID,104,VALID,0,VALID,23.1679,VALID,10,VALID,0,
2012-10-06, 02:26:04,VALID,1010.3,VALID,0,VALID,104,VALID,0,VALID,23.1679,VALID,10,VALID,0,
2012-10-06, 02:27:04,VALID,1010.34,VALID,0,VALID,104,VALID,0,VALID,23.1272,VALID,10,VALID,0,
2012-10-06, 02:28:04,VALID,1010.32,VALID,0,VALID,104,VALID,0,VALID,23.129,VALID,11,VALID,0,
2012-10-06, 02:29:04,VALID,1010.34,VALID,0,VALID,104,VALID,0,VALID,23.09,VALID,10,VALID,0,
2012-10-06, 02:30:04,VALID,1010.34,VALID,0,VALID,104,VALID,0,VALID,23.09,VALID,10,VALID,0,
2012-10-06, 02:31:04,VALID,1010.32,VALID,0,VALID,104,VALID,0,VALID,23.1095,VALID,10,VALID,0,
2012-10-06, 02:32:04,VALID,1010.31,VALID,0,VALID,104,VALID,0.112112,VALID,23.129,VALID,10,VALID,0,
2012-10-06, 02:33:04,VALID,1010.32,VALID,0,VALID,104,VALID,0,VALID,23.1485,VALID,10,VALID,0,
2012-10-06, 02:34:04,VALID,1010.33,VALID,0,VALID,104,VALID,0,VALID,23.1485,VALID,9,VALID,0,
2012-10-06, 02:35:04,VALID,1010.32,VALID,0,VALID,104,VALID,0,VALID,23.1467,VALID,10,VALID,0,
2012-10-06, 02:36:04,VALID,1010.33,VALID,0,VALID,104,VALID,0,VALID,23.1679,VALID,11,VALID,0,
2012-10-06, 02:37:04,VALID,1010.34,VALID,0,VALID,104,VALID,0,VALID,23.1077,VALID,11,VALID,0,
2012-10-06, 02:38:04,VALID,1010.32,VALID,0,VALID,104,VALID,0,VALID,23.0883,VALID,10,VALID,0,
2012-10-06, 02:39:04,VALID,1010.33,VALID,0,VALID,104,VALID,0,VALID,23.0493,VALID,11,VALID,0,
2012-10-06, 02:40:04,VALID,1010.34,VALID,0,VALID,104,VALID,0,VALID,23.0705,VALID,11,VALID,0,
2012-10-06, 02:41:04,VALID,1010.33,VALID,0,VALID,104,VALID,0,VALID,23.0511,VALID,11,VALID,0,
2012-10-06, 02:42:04,VALID,1010.33,VALID,0,VALID,104,VALID,0,VALID,23.0298,VALID,10,VALID,0,
2012-10-06, 02:43:04,VALID,1010.35,VALID,0,VALID,104,VALID,0,VALID,23.0121,VALID,10,VALID,0,
2012-10-06, 02:44:04,VALID,1010.37,VALID,0,VALID,104,VALID,0,VALID,22.9926,VALID,10,VALID,0,
2012-10-06, 02:45:04,VALID,1010.36,VALID,0,VALID,104,VALID,0,VALID,23.0121,VALID,10,VALID,0,
2012-10-06, 02:46:04,VALID,1010.33,VALID,0,VALID,104,VALID,0,VALID,22.9909,VALID,10,VALID,0,
2012-10-06, 02:47:04,VALID,1010.35,VALID,0,VALID,104,VALID,0,VALID,23.0121,VALID,10,VALID,0,
2012-10-06, 02:48:04,VALID,1010.34,VALID,0,VALID,104,VALID,0,VALID,23.0511,VALID,10,VALID,0,
2012-10-06, 02:49:04,VALID,1010.34,VALID,0,VALID,104,VALID,0,VALID,23.0298,VALID,10,VALID,0,
2012-10-06, 02:50:04,VALID,1010.3,VALID,0,VALID,104,VALID,0,VALID,23.0511,VALID,10,VALID,0,
2012-10-06, 02:51:04,VALID,1010.3,VALID,0,VALID,104,VALID,0,VALID,23.0511,VALID,10,VALID,0,
2012-10-06, 02:52:04,VALID,1010.28,VALID,0,VALID,104,VALID,0,VALID,23.0511,VALID,10,VALID,0,
2012-10-06, 02:53:04,VALID,1010.33,VALID,0,VALID,104,VALID,0,VALID,23.0298,VALID,10,VALID,0,
2012-10-06, 02:54:04,VALID,1010.35,VALID,0,VALID,104,VALID,0,VALID,23.0103,VALID,10,VALID,0,
2012-10-06, 02:55:04,VALID,1010.34,VALID,0,VALID,104,VALID,0,VALID,23.0121,VALID,10,VALID,0,
2012-10-06, 02:56:04,VALID,1010.33,VALID,0,VALID,104,VALID,0,VALID,23.0121,VALID,10,VALID,0,
2012-10-06, 02:57:04,VALID,1010.33,VALID,0,VALID,104,VALID,0,VALID,23.0511,VALID,10,VALID,0,
2012-10-06, 02:58:04,VALID,1010.34,VALID,0,VALID,104,VALID,0,VALID,23.0705,VALID,10,VALID,0,
2012-10-06, 02:59:04,VALID,1010.33,VALID,0,VALID,104,VALID,0,VALID,23.0705,VALID,10,VALID,0,
2012-10-06, 03:00:04,VALID,1010.32,VALID,0,VALID,104,VALID,0,VALID,23.0705,VALID,10,VALID,0,
2012-10-06, 03:01:04,VALID,1010.28,VALID,0,VALID,104,VALID,0,VALID,23.0705,VALID,10,VALID,0,
2012-10-06, 03:02:04,VALID,1010.32,VALID,0,VALID,104,VALID,0,VALID,23.0511,VALID,10,VALID,0,
2012-10-06, 03:03:04,VALID,1010.26,VALID,0,VALID,104,VALID,0,VALID,23.0316,VALID,10,VALID,0,
2012-10-06, 03:04:04,VALID,1010.27,VALID,0,VALID,104,VALID,0,VALID,23.0121,VALID,10,VALID,0,
2012-10-06, 03:05:04,VALID,1010.25,VALID,0,VALID,104,VALID,0,VALID,23.0121,VALID,10,VALID,0,
2012-10-06, 03:06:04,VALID,1010.24,VALID,0,VALID,104,VALID,0,VALID,22.9926,VALID,10,VALID,0,
2012-10-06, 03:07:04,VALID,1010.25,VALID,0,VALID,104,VALID,0,VALID,22.9926,VALID,10,VALID,0,
2012-10-06, 03:08:04,VALID,1010.26,VALID,0,VALID,104,VALID,0,VALID,22.9519,VALID,10,VALID,0,
2012-10-06, 03:09:04,VALID,1010.26,VALID,0,VALID,104,VALID,0,VALID,22.9324,VALID,10,VALID,0,
2012-10-06, 03:10:04,VALID,1010.27,VALID,0,VALID,104,VALID,0,VALID,22.9536,VALID,10,VALID,0,
2012-10-06, 03:11:04,VALID,1010.27,VALID,0,VALID,104,VALID,0,VALID,22.9129,VALID,10,VALID,0,
2012-10-06, 03:12:04,VALID,1010.28,VALID,0,VALID,104,VALID,0,VALID,22.9147,VALID,10,VALID,0,
2012-10-06, 03:13:04,VALID,1010.29,VALID,0,VALID,104,VALID,0,VALID,22.9342,VALID,10,VALID,0,
2012-10-06, 03:14:04,VALID,1010.27,VALID,0,VALID,104,VALID,0,VALID,22.9342,VALID,10,VALID,0,
2012-10-06, 03:15:04,VALID,1010.25,VALID,0,VALID,104,VALID,0,VALID,22.9324,VALID,10,VALID,0,
2012-10-06, 03:16:04,VALID,1010.25,VALID,0,VALID,104,VALID,0,VALID,22.9519,VALID,10,VALID,0,
2012-10-06, 03:17:04,VALID,1010.26,VALID,0,VALID,104,VALID,0,VALID,22.9926,VALID,10,VALID,0,
2012-10-06, 03:18:04,VALID,1010.26,VALID,0,VALID,104,VALID,0,VALID,22.9519,VALID,10,VALID,0,
2012-10-06, 03:19:04,VALID,1010.27,VALID,0,VALID,104,VALID,0,VALID,22.9926,VALID,10,VALID,0,
2012-10-06, 03:20:04,VALID,1010.29,VALID,0,VALID,104,VALID,0,VALID,22.9519,VALID,10,VALID,0,
2012-10-06, 03:21:04,VALID,1010.29,VALID,0,VALID,104,VALID,0,VALID,22.9731,VALID,10,VALID,0,
2012-10-06, 03:22:04,VALID,1010.29,VALID,0,VALID,104,VALID,0.112112,VALID,22.9519,VALID,10,VALID,0,
2012-10-06, 03:23:04,VALID,1010.27,VALID,0,VALID,104,VALID,0,VALID,22.9519,VALID,10,VALID,0,
2012-10-06, 03:24:04,VALID,1010.28,VALID,0,VALID,104,VALID,0,VALID,22.9324,VALID,10,VALID,0,
2012-10-06, 03:25:04,VALID,1010.28,VALID,0,VALID,104,VALID,0,VALID,22.9536,VALID,10,VALID,0,
2012-10-06, 03:26:04,VALID,1010.27,VALID,0,VALID,104,VALID,0,VALID,22.9536,VALID,10,VALID,0,
2012-10-06, 03:27:04,VALID,1010.25,VALID,0,VALID,104,VALID,0,VALID,22.9324,VALID,10,VALID,0,
2012-10-06, 03:28:04,VALID,1010.25,VALID,0,VALID,104,VALID,0,VALID,22.9536,VALID,10,VALID,0,
2012-10-06, 03:29:04,VALID,1010.26,VALID,0,VALID,104,VALID,0,VALID,22.9129,VALID,10,VALID,0,
2012-10-06, 03:30:04,VALID,1010.23,VALID,0,VALID,104,VALID,0,VALID,22.9536,VALID,10,VALID,0,
2012-10-06, 03:31:04,VALID,1010.26,VALID,0,VALID,104,VALID,0,VALID,22.9731,VALID,10,VALID,0,
2012-10-06, 03:32:04,VALID,1010.27,VALID,0,VALID,104,VALID,0,VALID,22.9731,VALID,10,VALID,0,
2012-10-06, 03:33:04,VALID,1010.29,VALID,0,VALID,104,VALID,0,VALID,22.9731,VALID,10,VALID,0,
2012-10-06, 03:34:04,VALID,1010.29,VALID,0,VALID,104,VALID,0,VALID,22.9536,VALID,10,VALID,0,
2012-10-06, 03:35:04,VALID,1010.32,VALID,0,VALID,104,VALID,0,VALID,22.9147,VALID,10,VALID,0,
2012-10-06, 03:36:04,VALID,1010.32,VALID,0,VALID,104,VALID,0,VALID,22.9342,VALID,10,VALID,0,
2012-10-06, 03:37:04,VALID,1010.32,VALID,0,VALID,104,VALID,0,VALID,22.9536,VALID,10,VALID,0,
2012-10-06, 03:38:04,VALID,1010.33,VALID,0,VALID,104,VALID,0,VALID,22.9731,VALID,10,VALID,0,
2012-10-06, 03:39:04,VALID,1010.36,VALID,0,VALID,104,VALID,0,VALID,22.9536,VALID,10,VALID,0,
2012-10-06, 03:40:04,VALID,1010.36,VALID,0,VALID,104,VALID,0,VALID,22.9536,VALID,10,VALID,0,
2012-10-06, 03:41:04,VALID,1010.39,VALID,0,VALID,104,VALID,0,VALID,22.9536,VALID,10,VALID,0,
2012-10-06, 03:42:04,VALID,1010.41,VALID,0,VALID,104,VALID,0,VALID,22.9147,VALID,10,VALID,0,
2012-10-06, 03:43:04,VALID,1010.42,VALID,0,VALID,104,VALID,0,VALID,22.9342,VALID,10,VALID,0,
2012-10-06, 03:44:04,VALID,1010.44,VALID,0,VALID,104,VALID,0,VALID,22.9147,VALID,10,VALID,0,
2012-10-06, 03:45:04,VALID,1010.45,VALID,0,VALID,104,VALID,0,VALID,22.9147,VALID,10,VALID,0,
2012-10-06, 03:46:04,VALID,1010.45,VALID,0,VALID,104,VALID,0,VALID,22.9147,VALID,10,VALID,0,
2012-10-06, 03:47:04,VALID,1010.47,VALID,0,VALID,104,VALID,0,VALID,22.9342,VALID,10,VALID,0,
2012-10-06, 03:48:04,VALID,1010.48,VALID,0,VALID,104,VALID,0,VALID,22.9342,VALID,10,VALID,0,
2012-10-06, 03:49:04,VALID,1010.46,VALID,0,VALID,104,VALID,0,VALID,22.9342,VALID,10,VALID,0,
2012-10-06, 03:50:04,VALID,1010.47,VALID,0,VALID,104,VALID,0,VALID,22.9129,VALID,11,VALID,0,
2012-10-06, 03:51:04,VALID,1010.47,VALID,0,VALID,104,VALID,0.112112,VALID,22.9324,VALID,10,VALID,0,
2012-10-06, 03:52:04,VALID,1010.46,VALID,0,VALID,104,VALID,0,VALID,22.9536,VALID,11,VALID,0,
2012-10-06, 03:53:04,VALID,1010.49,VALID,0,VALID,104,VALID,0,VALID,22.9536,VALID,11,VALID,0,
2012-10-06, 03:54:04,VALID,1010.48,VALID,0,VALID,104,VALID,0,VALID,22.9731,VALID,10,VALID,0,
2012-10-06, 03:55:04,VALID,1010.48,VALID,0,VALID,104,VALID,0,VALID,22.9714,VALID,10,VALID,0,
2012-10-06, 03:56:04,VALID,1010.45,VALID,0,VALID,104,VALID,0,VALID,23.0103,VALID,11,VALID,0,
2012-10-06, 03:57:04,VALID,1010.51,VALID,0,VALID,104,VALID,0,VALID,23.0298,VALID,10,VALID,0,
2012-10-06, 03:58:04,VALID,1010.47,VALID,0,VALID,104,VALID,0,VALID,23.0511,VALID,11,VALID,0,
2012-10-06, 03:59:04,VALID,1010.48,VALID,0,VALID,104,VALID,0,VALID,23.0316,VALID,10,VALID,0,
2012-10-06, 04:00:04,VALID,1010.51,VALID,0,VALID,104,VALID,0,VALID,23.0316,VALID,10,VALID,0,
2012-10-06, 04:01:04,VALID,1010.49,VALID,0,VALID,104,VALID,0,VALID,23.0121,VALID,10,VALID,0,
2012-10-06, 04:02:04,VALID,1010.51,VALID,0,VALID,104,VALID,0,VALID,22.9909,VALID,10,VALID,0,
2012-10-06, 04:03:04,VALID,1010.53,VALID,0,VALID,104,VALID,0,VALID,22.9731,VALID,10,VALID,0,
2012-10-06, 04:04:04,VALID,1010.52,VALID,0,VALID,104,VALID,0,VALID,22.9536,VALID,10,VALID,0,
2012-10-06, 04:05:04,VALID,1010.5,VALID,0,VALID,104,VALID,0,VALID,22.9536,VALID,10,VALID,0,
2012-10-06, 04:06:04,VALID,1010.55,VALID,0,VALID,104,VALID,0,VALID,22.9731,VALID,10,VALID,0,
2012-10-06, 04:07:04,VALID,1010.55,VALID,0,VALID,104,VALID,0,VALID,22.9342,VALID,10,VALID,0,
2012-10-06, 04:08:04,VALID,1010.57,VALID,0,VALID,104,VALID,0,VALID,22.9147,VALID,10,VALID,0,
2012-10-06, 04:09:04,VALID,1010.57,VALID,0,VALID,104,VALID,0,VALID,22.8952,VALID,10,VALID,0,
2012-10-06, 04:10:04,VALID,1010.55,VALID,0,VALID,104,VALID,0,VALID,22.8952,VALID,10,VALID,0,